Date String (YYYY-MM-DD hh:mm:ss) UTC,Instrument flags,Ambient pressure (hPa),Sample flow (lpm),Bypass flow (lpm),Sample temperature (°C),Ambient temperature (°C),ASC tube jacket temperature (°C),LED temperature (°C),Box temperature (°C),Sample RH (%),Span deviation,Mass concentration (μg/m³),Mass concentration (μg/m³),Mass concentration (μg/m³)
DateTimeUTC,F1_M11,P_M11,Q1_M11,Q2_M11,T1_M11,T2_M11,T3_M11,T4_M11,T5_M11,U1_M11,ZSPAN_M11,X0_M11,X2_M11,X1_M11
2022-02-10 16:00:00,,0824.6,5.00,0.00,23.2,22.7,00.0,32.0,25.0,12.1,0000.0,0002.31,0001.30,0000.98
2022-02-10 16:01:00,,0824.6,5.00,0.00,23.2,22.7,00.0,32.0,25.0,12.4,0000.0,0002.26,0001.28,0000.98
2022-02-10 16:02:00,,0824.6,4.99,0.00,23.2,22.7,00.0,32.1,25.0,12.3,0000.0,0002.26,0001.27,0000.98
2022-02-10 16:03:00,,0824.6,5.00,0.00,23.3,22.7,00.0,32.1,25.1,12.4,0000.0,0002.26,0001.27,0000.98
2022-02-10 16:04:00,,0824.6,4.99,0.00,23.3,22.7,00.0,32.1,25.1,12.3,0000.0,0002.34,0001.32,0000.99
2022-02-10 16:05:00,,0824.6,5.01,0.00,23.3,22.7,00.0,32.1,25.1,12.3,0000.0,0002.23,0001.36,0001.00
2022-02-10 16:06:00,,0824.6,4.99,0.00,23.3,22.7,00.0,32.1,25.1,12.4,0000.0,0002.30,0001.40,0001.02
2022-02-10 16:07:00,,0824.6,5.02,0.00,23.3,22.7,00.0,32.1,25.1,11.9,0000.0,0002.41,0001.42,0001.03
2022-02-10 16:08:00,,0824.6,4.99,0.00,23.3,22.7,00.0,32.2,25.1,12.2,0000.0,0002.46,0001.44,0001.04
2022-02-10 16:09:00,,0824.6,5.00,0.00,23.3,22.7,00.0,32.2,25.1,12.3,0000.0,0002.47,0001.47,0001.06
2022-02-10 16:10:00,,0824.7,5.01,0.00,23.3,22.8,00.0,32.2,25.1,12.5,0000.0,0002.49,0001.49,0001.07
2022-02-10 16:11:00,,0824.5,5.00,0.00,23.4,22.8,00.0,32.2,25.2,12.7,0000.0,0002.54,0001.52,0001.09
2022-02-10 16:12:00,,0824.6,5.00,0.00,23.4,22.8,00.0,32.2,25.2,13.0,0000.0,0002.55,0001.54,0001.10
2022-02-10 16:13:00,,0824.7,4.99,0.00,23.4,22.8,00.0,32.2,25.2,12.9,0000.0,0002.82,0001.54,0001.12
2022-02-10 16:14:00,,0824.6,5.02,0.00,23.4,22.8,00.0,32.2,25.2,12.7,0000.0,0003.47,0001.59,0001.15
2022-02-10 16:15:00,,0824.6,4.99,0.00,23.4,22.8,00.0,32.3,25.3,12.7,0000.0,0003.60,0001.60,0001.17
2022-02-10 16:16:00,,0824.6,5.00,0.00,23.4,22.9,00.0,32.3,25.3,12.5,0000.0,0003.57,0001.59,0001.19
2022-02-10 16:17:00,,0824.5,5.00,0.00,23.5,22.9,00.0,32.3,25.3,12.9,0000.0,0003.49,0001.54,0001.18
2022-02-10 16:18:00,,0824.4,5.00,0.00,23.5,22.9,00.0,32.3,25.3,13.0,0000.0,0003.40,0001.55,0001.20
2022-02-10 16:19:00,,0824.5,5.02,0.00,23.5,22.9,00.0,32.3,25.4,12.8,0000.0,0003.29,0001.56,0001.23
2022-02-10 16:20:00,,0824.5,5.00,0.00,23.5,23.0,00.0,32.3,25.4,14.1,0000.0,0003.52,0001.62,0001.26
2022-02-10 16:21:00,,0824.4,5.01,0.00,23.6,23.0,00.0,32.4,25.4,14.3,0000.0,0004.06,0001.73,0001.30
2022-02-10 16:22:00,,0824.4,5.00,0.00,23.6,23.0,00.0,32.4,25.5,13.6,0000.0,0006.32,0001.80,0001.33
2022-02-10 16:23:00,,0824.3,5.00,0.00,23.6,23.0,00.0,32.4,25.5,12.9,0000.0,0006.77,0001.84,0001.34
2022-02-10 16:24:00,,0824.3,5.01,0.00,23.6,23.0,00.0,32.4,25.5,12.6,0000.0,0006.69,0001.90,0001.34
2022-02-10 16:25:00,,0824.3,5.00,0.00,23.6,23.0,00.0,32.4,25.5,13.4,0000.0,0006.25,0001.96,0001.34
2022-02-10 16:26:00,,0824.3,4.99,0.00,23.7,23.0,00.0,32.5,25.5,12.9,0000.0,0006.09,0001.95,0001.35
2022-02-10 16:27:00,,0824.4,5.01,0.00,23.7,23.1,00.0,32.5,25.5,12.5,0000.0,0006.19,0002.02,0001.35
2022-02-10 16:28:00,,0824.3,4.99,0.00,23.7,23.1,00.0,32.5,25.6,12.1,0000.0,0006.19,0002.05,0001.35
2022-02-10 16:29:00,,0824.4,5.01,0.00,23.7,23.1,00.0,32.5,25.6,11.9,0000.0,0006.16,0002.04,0001.32
2022-02-10 16:30:00,,0824.3,5.01,0.00,23.7,23.1,00.0,32.5,25.6,11.9,0000.0,0006.22,0002.02,0001.29
2022-02-10 16:31:00,,0824.3,4.99,0.00,23.8,23.2,00.0,32.6,25.6,12.2,0000.0,0006.16,0001.98,0001.25
2022-02-10 16:32:00,,0824.3,5.02,0.00,23.8,23.2,00.0,32.6,25.6,12.6,0000.0,0005.71,0001.84,0001.19
2022-02-10 16:33:00,,0824.3,4.99,0.00,23.8,23.2,00.0,32.6,25.7,12.3,0000.0,0003.73,0001.79,0001.15
2022-02-10 16:34:00,,0824.4,5.00,0.00,23.8,23.2,00.0,32.6,25.7,12.0,0000.0,0002.84,0001.71,0001.11
2022-02-10 16:35:00,,0824.3,5.00,0.00,23.8,23.2,00.0,32.6,25.7,12.2,0000.0,0002.73,0001.69,0001.11
2022-02-10 16:36:00,,0824.4,4.99,0.00,23.9,23.3,00.0,32.7,25.7,12.0,0000.0,0002.86,0001.60,0001.10
2022-02-10 16:37:00,,0824.3,5.01,0.00,23.9,23.3,00.0,32.7,25.7,13.5,0000.0,0003.86,0001.65,0001.11
2022-02-10 16:38:00,,0824.4,5.01,0.00,23.9,23.3,00.0,32.7,25.8,14.1,0000.0,0003.78,0001.60,0001.14
2022-02-10 16:39:00,,0824.4,4.98,0.00,23.9,23.3,00.0,32.7,25.8,12.7,0000.0,0005.66,0001.57,0001.15
2022-02-10 16:40:00,,0824.4,5.02,0.00,24.0,23.3,00.0,32.7,25.8,11.9,0000.0,0006.30,0001.59,0001.17
2022-02-10 16:41:00,,0824.4,4.99,0.00,24.0,23.3,00.0,32.8,25.9,12.3,0000.0,0006.34,0001.60,0001.18
2022-02-10 16:42:00,,0824.4,5.00,0.00,24.0,23.4,00.0,32.8,25.9,13.4,0000.0,0006.32,0001.60,0001.21
2022-02-10 16:43:00,,0824.4,5.00,0.00,24.0,23.4,00.0,32.8,25.9,13.6,0000.0,0006.85,0001.65,0001.24
2022-02-10 16:44:00,,0824.4,4.99,0.00,24.0,23.4,00.0,32.8,25.9,13.8,0000.0,0007.59,0001.68,0001.27
2022-02-10 16:45:00,,0824.4,5.00,0.00,24.1,23.4,00.0,32.8,26.0,13.8,0000.0,0007.64,0001.71,0001.30
2022-02-10 16:46:00,,0824.4,5.02,0.00,24.1,23.5,00.0,32.9,26.0,13.4,0000.0,0007.66,0001.71,0001.30
2022-02-10 16:47:00,,0824.4,4.97,0.00,24.1,23.5,00.0,32.9,26.0,14.2,0000.0,0007.58,0001.81,0001.33
2022-02-10 16:48:00,,0824.4,5.01,0.00,24.1,23.5,00.0,32.9,26.0,14.2,0000.0,0007.37,0001.88,0001.36
2022-02-10 16:49:00,,0824.3,5.01,0.00,24.1,23.5,00.0,32.9,26.1,14.0,0000.0,0007.43,0001.94,0001.38
2022-02-10 16:50:00,,0824.3,4.98,0.00,24.2,23.5,00.0,32.9,26.1,14.0,0000.0,0005.66,0002.05,0001.41
2022-02-10 16:51:00,,0824.3,5.02,0.00,24.2,23.6,00.0,33.0,26.1,14.5,0000.0,0005.31,0002.15,0001.48
2022-02-10 16:52:00,,0824.3,4.98,0.00,24.2,23.6,00.0,33.0,26.1,14.6,0000.0,0005.45,0002.25,0001.55
2022-02-10 16:53:00,,0824.4,5.01,0.00,24.2,23.6,00.0,33.0,26.2,14.2,0000.0,0005.93,0002.37,0001.62
2022-02-10 16:54:00,,0824.3,5.00,0.00,24.2,23.6,00.0,33.0,26.2,14.1,0000.0,0006.14,0002.51,0001.66
2022-02-10 16:55:00,,0824.3,5.00,0.00,24.3,23.6,00.0,33.1,26.2,14.3,0000.0,0005.68,0002.57,0001.72
2022-02-10 16:56:00,,0824.3,5.00,0.00,24.3,23.7,00.0,33.1,26.2,13.9,0000.0,0006.20,0002.64,0001.77
2022-02-10 16:57:00,,0824.3,5.00,0.00,24.3,23.7,00.0,33.1,26.3,14.3,0000.0,0007.01,0002.81,0001.85
2022-02-10 16:58:00,,0824.2,5.01,0.00,24.4,23.7,00.0,33.1,26.3,14.1,0000.0,0007.29,0002.87,0001.90
2022-02-10 16:59:00,,0824.2,4.99,0.00,24.4,23.7,00.0,33.1,26.3,13.4,0000.0,0006.97,0002.80,0001.89
